Simultaneous Nadir Overpasses (SNOs) Predictions

Prediction of SNOs between AQUA and METOP-C Satellite Orbit:

Table of predicted SNOs for the next 14.0 days since TLE Epoch: 12/6/2019
Index Date (AQUA) Time (AQUA) Lat,Lon (AQUA) SZA (AQUA ) Date (METOP-C) Time (METOP-C) Lat,Lon (METOP-C) SZA (METOP-C ) Distance(km) Time Diff (sec)
1 12/09/2019 11:23:23 -73.75,-176.50 83.51 12/09/2019 11:22:10 -73.78,-176.47 83.47 3.36 73
2 12/09/2019 12:12:52 73.81, -9.00 96.56 12/09/2019 12:12:50 73.80, -9.07 96.56 2.32 2
3 12/09/2019 13:02:19 -73.90, 158.44 83.34 12/09/2019 13:03:29 -73.90, 158.49 83.34 1.59 70
4 12/12/2019 06:57:39 -73.74,-110.06 83.26 12/12/2019 06:56:31 -73.78,-110.06 83.22 3.80 68
5 12/12/2019 07:47:09 73.85, 57.33 96.86 12/12/2019 07:47:10 73.85, 57.44 96.86 3.50 1
6 12/12/2019 08:36:36 -73.94,-135.22 83.05 12/12/2019 08:37:49 -73.95,-134.98 83.05 7.55 73
7 12/15/2019 02:31:56 -73.79, -43.73 83.02 12/15/2019 02:30:52 -73.78, -43.65 83.03 3.13 64
8 12/15/2019 03:21:25 73.85, 123.77 97.05 12/15/2019 03:21:31 73.84, 123.84 97.04 2.50 6
9 12/15/2019 04:10:56 -74.15, -69.26 82.64 12/15/2019 04:12:06 -74.15, -68.09 82.67 35.54 70
10 12/17/2019 22:06:11 -73.80, 22.69 82.88 12/17/2019 22:05:12 -73.78, 22.76 82.90 3.08 59
11 12/17/2019 22:55:40 73.86,-169.81 97.19 12/17/2019 22:55:51 73.84,-169.76 97.17 2.60 11
12 12/17/2019 23:45:14 -74.31, -3.19 82.34 12/17/2019 23:46:23 -74.30, -1.31 82.40 56.73 69




NCC Satellite Simultaneous Nadir Overpasses (SNOs) Prediction Service
